�������l�o���
Date,Time,MP-1(��Sv/h),MP-2(��Sv/h),MP-3(��Sv/h),MP-4(��Sv/h),MP-5(��Sv/h),MP-6(��Sv/h),MP-7(��Sv/h),MP-8(��Sv/h),����,����(m/s),���J
2019/09/14,00:00,0.739,1.051,0.723,1.288,0.941,0.422,0.733,0.693,��쐼,3.7,��
2019/09/14,00:10,0.742,1.048,0.722,1.288,0.942,0.422,0.734,0.692,��쐼,3.8,��
2019/09/14,00:20,0.741,1.049,0.721,1.292,0.942,0.422,0.734,0.692,��쐼,3.6,��
2019/09/14,00:30,0.741,1.051,0.721,1.291,0.941,0.423,0.734,0.693,��쐼,3.1,��
2019/09/14,00:40,0.742,1.051,0.722,1.291,0.940,0.422,0.734,0.692,��쐼,3.1,��
2019/09/14,00:50,0.739,1.049,0.721,1.288,0.940,0.422,0.734,0.693,��,3.3,��
2019/09/14,01:00,0.740,1.050,0.723,1.290,0.942,0.421,0.734,0.693,��쐼,2.6,��
2019/09/14,01:10,0.739,1.050,0.721,1.288,0.941,0.423,0.732,0.693,��쐼,2.0,��
2019/09/14,01:20,0.740,1.048,0.721,1.288,0.940,0.422,0.734,0.693,�쐼,2.0,��
2019/09/14,01:30,0.739,1.050,0.722,1.291,0.940,0.421,0.733,0.693,�쐼,2.6,��
2019/09/14,01:40,0.738,1.049,0.723,1.289,0.942,0.423,0.733,0.694,��쐼,2.6,��
2019/09/14,01:50,0.740,1.050,0.724,1.291,0.942,0.420,0.732,0.694,��쐼,2.3,��
2019/09/14,02:00,0.740,1.050,0.722,1.291,0.941,0.422,0.734,0.694,��쐼,2.2,��
2019/09/14,02:10,0.741,1.051,0.722,1.289,0.941,0.421,0.733,0.694,��쐼,2.2,��
2019/09/14,02:20,0.738,1.051,0.723,1.288,0.939,0.421,0.734,0.693,��쐼,2.0,��
2019/09/14,02:30,0.738,1.051,0.723,1.288,0.941,0.423,0.735,0.693,��쐼,2.3,��
2019/09/14,02:40,0.741,1.050,0.719,1.292,0.942,0.423,0.735,0.692,��쐼,2.6,��
2019/09/14,02:50,0.739,1.050,0.722,1.290,0.941,0.421,0.734,0.694,��쐼,3.1,��
2019/09/14,03:00,0.739,1.046,0.724,1.289,0.940,0.421,0.736,0.693,��,2.6,��
2019/09/14,03:10,0.740,1.048,0.722,1.291,0.940,0.421,0.733,0.693,��쐼,2.0,��
2019/09/14,03:20,0.738,1.050,0.719,1.292,0.942,0.421,0.734,0.692,��쐼,2.3,��
2019/09/14,03:30,0.739,1.049,0.722,1.292,0.942,0.420,0.734,0.694,��쐼,2.2,��
2019/09/14,03:40,0.740,1.049,0.721,1.291,0.941,0.422,0.733,0.693,��쐼,2.3,��
2019/09/14,03:50,0.739,1.047,0.722,1.291,0.941,0.421,0.734,0.694,�쐼,2.6,��
2019/09/14,04:00,0.739,1.049,0.722,1.294,0.942,0.423,0.734,0.694,��쐼,2.6,��
2019/09/14,04:10,0.739,1.049,0.721,1.292,0.943,0.421,0.736,0.694,��쐼,2.6,��
2019/09/14,04:20,0.740,1.047,0.723,1.290,0.940,0.422,0.734,0.694,��쐼,2.3,��
2019/09/14,04:30,0.739,1.050,0.724,1.291,0.942,0.423,0.733,0.696,��쐼,2.6,��
2019/09/14,04:40,0.740,1.049,0.721,1.290,0.941,0.421,0.734,0.694,��쐼,3.2,��
2019/09/14,04:50,0.742,1.048,0.721,1.289,0.942,0.422,0.734,0.694,��쐼,3.4,��
2019/09/14,05:00,0.741,1.047,0.724,1.291,0.944,0.421,0.734,0.695,��쐼,3.2,��
2019/09/14,05:10,0.742,1.047,0.723,1.290,0.941,0.420,0.733,0.695,��쐼,2.9,��
2019/09/14,05:20,0.739,1.049,0.723,1.291,0.942,0.423,0.733,0.694,��쐼,3.0,��
2019/09/14,05:30,0.739,1.046,0.721,1.291,0.940,0.422,0.735,0.694,��쐼,2.6,��
2019/09/14,05:40,0.739,1.053,0.723,1.290,0.942,0.422,0.735,0.695,��쐼,2.6,��
2019/09/14,05:50,0.741,1.048,0.722,1.290,0.942,0.422,0.735,0.694,��쐼,2.6,��
2019/09/14,06:00,0.742,1.051,0.722,1.289,0.941,0.420,0.734,0.696,��,2.6,��
2019/09/14,06:10,0.740,1.051,0.721,1.290,0.943,0.421,0.734,0.694,��쐼,2.6,��
2019/09/14,06:20,0.740,1.049,0.723,1.289,0.941,0.421,0.733,0.693,��,2.6,��
2019/09/14,06:30,0.743,1.049,0.724,1.292,0.941,0.422,0.733,0.694,��쐼,2.3,��
2019/09/14,06:40,0.742,1.048,0.723,1.290,0.942,0.421,0.732,0.694,��쐼,2.3,��
2019/09/14,06:50,0.741,1.050,0.722,1.289,0.941,0.422,0.733,0.695,��쐼,2.2,�L
2019/09/14,07:00,0.741,1.051,0.725,1.292,0.943,0.421,0.734,0.694,��쐼,2.2,��
2019/09/14,07:10,0.742,1.050,0.723,1.292,0.943,0.422,0.737,0.694,��쐼,2.5,��
2019/09/14,07:20,0.742,1.052,0.724,1.292,0.942,0.420,0.733,0.695,��쐼,2.3,��
2019/09/14,07:30,0.739,1.049,0.724,1.292,0.943,0.421,0.733,0.695,��쐼,2.6,��
2019/09/14,07:40,0.742,1.048,0.724,1.290,0.940,0.422,0.733,0.695,��쐼,2.6,��
2019/09/14,07:50,0.741,1.049,0.724,1.291,0.942,0.420,0.733,0.692,��,2.3,��
2019/09/14,08:00,0.741,1.048,0.722,1.290,0.941,0.421,0.733,0.694,��,2.0,��
2019/09/14,08:10,0.741,1.047,0.722,1.290,0.940,0.420,0.733,0.693,��,1.5,��
2019/09/14,08:20,0.741,1.046,0.722,1.289,0.939,0.420,0.732,0.694,��쓌,1.7,��
2019/09/14,08:30,0.742,1.041,0.722,1.289,0.940,0.420,0.734,0.692,��,2.0,��
2019/09/14,08:40,0.743,1.047,0.721,1.292,0.942,0.418,0.735,0.692,��쓌,1.2,��
2019/09/14,08:50,0.741,1.046,0.720,1.293,0.939,0.420,0.735,0.692,��,1.9,��
2019/09/14,09:00,0.740,1.043,0.721,1.292,0.941,0.422,0.733,0.692,��,2.3,��
2019/09/14,09:10,0.742,1.041,0.717,1.287,0.940,0.420,0.734,0.693,��,2.3,��
2019/09/14,09:20,0.740,1.041,0.721,1.292,0.941,0.418,0.734,0.693,��쓌,2.2,��
2019/09/14,09:30,0.742,1.043,0.720,1.290,0.940,0.422,0.733,0.691,�쓌,2.6,��
2019/09/14,09:40,0.741,1.042,0.722,1.290,0.941,0.420,0.734,0.691,��쓌,2.2,��
2019/09/14,09:50,0.742,1.042,0.722,1.292,0.941,0.422,0.734,0.693,���쓌,1.7,��
2019/09/14,10:00,0.742,1.045,0.719,1.292,0.941,0.421,0.733,0.693,�쓌,1.7,��
2019/09/14,10:10,0.741,1.044,0.721,1.291,0.940,0.420,0.733,0.692,��쓌,1.4,��
2019/09/14,10:20,0.743,1.046,0.722,1.291,0.943,0.421,0.734,0.692,�쓌,1.7,��
2019/09/14,10:30,0.741,1.044,0.724,1.290,0.944,0.420,0.736,0.694,�쓌,1.5,��
2019/09/14,10:40,0.743,1.046,0.722,1.290,0.941,0.421,0.735,0.694,���k��,1.7,��
2019/09/14,10:50,0.743,1.048,0.722,1.289,0.944,0.421,0.736,0.694,��,2.3,��
2019/09/14,11:00,0.743,1.050,0.721,1.288,0.943,0.423,0.735,0.693,��,1.7,��
2019/09/14,11:10,0.744,1.047,0.721,1.290,0.944,0.421,0.735,0.691,�쓌,1.4,��
2019/09/14,11:20,0.741,1.048,0.723,1.290,0.944,0.422,0.734,0.693,���쓌,1.5,��
2019/09/14,11:30,0.743,1.047,0.723,1.288,0.944,0.422,0.734,0.692,��,1.5,��
2019/09/14,11:40,0.742,1.050,0.724,1.289,0.946,0.421,0.733,0.692,���쓌,1.4,��
2019/09/14,11:50,0.745,1.051,0.723,1.291,0.943,0.421,0.735,0.692,��,1.2,��
2019/09/14,12:00,0.744,1.052,0.722,1.290,0.942,0.422,0.735,0.692,���쓌,0.9,��
2019/09/14,12:10,0.743,1.051,0.726,1.291,0.944,0.421,0.734,0.694,�k��,1.4,�L
2019/09/14,12:20,0.742,1.051,0.725,1.291,0.944,0.420,0.734,0.693,���쓌,1.5,��
2019/09/14,12:30,0.745,1.053,0.724,1.290,0.946,0.422,0.734,0.694,�쓌,1.7,��
2019/09/14,12:40,0.745,1.050,0.723,1.291,0.944,0.423,0.737,0.693,��,0.8,��
2019/09/14,12:50,0.742,1.053,0.723,1.294,0.943,0.423,0.736,0.693,��,1.7,��
2019/09/14,13:00,0.745,1.051,0.722,1.291,0.946,0.422,0.736,0.692,���쓌,2.2,��
2019/09/14,13:10,0.744,1.050,0.722,1.290,0.943,0.422,0.735,0.691,��,2.0,��
2019/09/14,13:20,0.742,1.054,0.722,1.291,0.946,0.422,0.735,0.692,���쓌,2.0,��
2019/09/14,13:30,0.745,1.048,0.724,1.292,0.944,0.423,0.738,0.694,���쓌,2.0,��
2019/09/14,13:40,0.745,1.050,0.720,1.290,0.945,0.420,0.736,0.694,��,1.7,��
2019/09/14,13:50,0.743,1.049,0.722,1.293,0.945,0.422,0.736,0.694,��,1.2,��
2019/09/14,14:00,0.743,1.050,0.723,1.292,0.945,0.422,0.736,0.692,�쓌,2.2,��
2019/09/14,14:10,0.745,1.049,0.725,1.291,0.948,0.422,0.736,0.693,�쓌,2.5,��
2019/09/14,14:20,0.744,1.050,0.724,1.291,0.947,0.422,0.734,0.693,�쓌,2.0,��
2019/09/14,14:30,0.747,1.052,0.722,1.291,0.947,0.423,0.734,0.694,�쓌,2.0,��
2019/09/14,14:40,0.745,1.053,0.723,1.290,0.945,0.421,0.735,0.693,�쓌,2.2,��
2019/09/14,14:50,0.744,1.051,0.724,1.293,0.945,0.421,0.736,0.695,��쓌,2.8,��
2019/09/14,15:00,0.745,1.053,0.726,1.293,0.946,0.423,0.733,0.692,��쓌,3.6,��
2019/09/14,15:10,0.746,1.053,0.724,1.292,0.945,0.422,0.736,0.693,��쓌,3.4,��
2019/09/14,15:20,0.746,1.054,0.726,1.292,0.946,0.422,0.735,0.695,��쓌,2.8,��
2019/09/14,15:30,0.745,1.053,0.726,1.294,0.945,0.422,0.735,0.691,��쓌,3.2,��
2019/09/14,15:40,0.747,1.054,0.726,1.292,0.945,0.421,0.736,0.692,��쓌,4.1,��
2019/09/14,15:50,0.747,1.056,0.725,1.294,0.946,0.422,0.735,0.695,��쓌,4.1,�L
2019/09/14,16:00,0.746,1.055,0.727,1.295,0.945,0.421,0.735,0.695,��,4.4,��
2019/09/14,16:10,0.748,1.057,0.726,1.292,0.947,0.422,0.735,0.694,��,4.0,��
2019/09/14,16:20,0.746,1.060,0.726,1.295,0.947,0.424,0.736,0.694,��,4.4,��
2019/09/14,16:30,0.746,1.059,0.728,1.294,0.945,0.424,0.735,0.693,��,4.5,��
2019/09/14,16:40,0.747,1.058,0.726,1.295,0.947,0.425,0.736,0.695,��,3.6,��
2019/09/14,16:50,0.745,1.058,0.726,1.296,0.946,0.424,0.734,0.694,��,4.2,��
2019/09/14,17:00,0.746,1.058,0.728,1.295,0.949,0.424,0.736,0.695,��,2.9,��
2019/09/14,17:10,0.746,1.059,0.729,1.297,0.949,0.424,0.736,0.696,��쓌,4.2,��
2019/09/14,17:20,0.746,1.059,0.729,1.295,0.944,0.424,0.736,0.695,��,3.7,��
2019/09/14,17:30,0.745,1.060,0.726,1.298,0.948,0.424,0.736,0.695,��,3.6,��
2019/09/14,17:40,0.745,1.056,0.728,1.294,0.947,0.423,0.734,0.697,��쓌,4.8,��
2019/09/14,17:50,0.747,1.058,0.725,1.295,0.948,0.423,0.735,0.696,��,4.7,��
2019/09/14,18:00,0.745,1.058,0.726,1.297,0.949,0.426,0.736,0.697,��,4.9,��
2019/09/14,18:10,0.745,1.057,0.728,1.295,0.948,0.423,0.736,0.697,��쓌,5.0,��
2019/09/14,18:20,0.745,1.058,0.728,1.294,0.951,0.424,0.736,0.696,��쓌,5.2,��
2019/09/14,18:30,0.746,1.061,0.728,1.297,0.950,0.426,0.737,0.698,��,4.6,��
2019/09/14,18:40,0.747,1.059,0.728,1.297,0.949,0.424,0.737,0.695,��,4.7,��
2019/09/14,18:50,0.747,1.060,0.729,1.295,0.947,0.425,0.738,0.697,��,4.5,��
2019/09/14,19:00,0.747,1.058,0.728,1.296,0.950,0.424,0.736,0.695,��,4.3,��
2019/09/14,19:10,0.746,1.062,0.728,1.296,0.948,0.424,0.736,0.695,��,4.0,��
2019/09/14,19:20,0.748,1.059,0.727,1.296,0.947,0.425,0.737,0.696,��,3.6,��
2019/09/14,19:30,0.747,1.060,0.729,1.297,0.950,0.426,0.738,0.697,��,4.1,��
2019/09/14,19:40,0.746,1.060,0.729,1.297,0.950,0.427,0.737,0.695,��쐼,3.8,��
2019/09/14,19:50,0.747,1.060,0.728,1.297,0.951,0.425,0.737,0.696,��쐼,3.4,��
2019/09/14,20:00,0.747,1.060,0.730,1.298,0.949,0.426,0.738,0.696,��,3.8,��
2019/09/14,20:10,0.747,1.062,0.729,1.296,0.949,0.426,0.737,0.695,��,3.7,��
2019/09/14,20:20,0.748,1.058,0.728,1.295,0.947,0.425,0.736,0.696,��,3.7,��
2019/09/14,20:30,0.748,1.059,0.727,1.296,0.951,0.425,0.736,0.696,��,4.5,��
2019/09/14,20:40,0.747,1.058,0.729,1.296,0.948,0.425,0.736,0.696,��,5.4,��
2019/09/14,20:50,0.748,1.058,0.730,1.297,0.949,0.426,0.737,0.694,��,6.1,��
2019/09/14,21:00,0.747,1.060,0.727,1.297,0.949,0.424,0.737,0.697,��,6.2,��
2019/09/14,21:10,0.750,1.058,0.728,1.298,0.948,0.426,0.736,0.695,��,7.4,��
2019/09/14,21:20,0.747,1.060,0.728,1.295,0.949,0.423,0.735,0.694,��,6.6,��
2019/09/14,21:30,0.746,1.057,0.728,1.297,0.949,0.426,0.737,0.695,��,7.0,��
2019/09/14,21:40,0.747,1.058,0.726,1.298,0.949,0.425,0.736,0.697,��,7.5,��
2019/09/14,21:50,0.747,1.058,0.728,1.297,0.951,0.425,0.736,0.696,��,8.5,��
2019/09/14,22:00,0.748,1.057,0.728,1.297,0.949,0.426,0.737,0.697,��,8.6,��
2019/09/14,22:10,0.749,1.057,0.728,1.296,0.948,0.426,0.736,0.695,��,9.4,��
2019/09/14,22:20,0.746,1.060,0.728,1.295,0.950,0.424,0.738,0.696,��,8.8,��
2019/09/14,22:30,0.749,1.059,0.727,1.297,0.949,0.427,0.737,0.697,��,8.3,��
2019/09/14,22:40,0.748,1.056,0.727,1.295,0.950,0.426,0.738,0.695,��,7.6,��
2019/09/14,22:50,0.749,1.059,0.728,1.297,0.949,0.425,0.737,0.694,��,7.6,��
2019/09/14,23:00,0.746,1.060,0.729,1.297,0.948,0.425,0.736,0.695,��쐼,7.8,��
2019/09/14,23:10,0.748,1.055,0.729,1.298,0.946,0.425,0.738,0.697,��쐼,7.7,��
2019/09/14,23:20,0.746,1.058,0.727,1.296,0.950,0.425,0.737,0.695,��,8.2,��
2019/09/14,23:30,0.744,1.060,0.729,1.295,0.950,0.423,0.735,0.696,��쐼,8.2,��
2019/09/14,23:40,0.747,1.059,0.729,1.295,0.949,0.425,0.738,0.695,��,8.1,��
2019/09/14,23:50,0.746,1.057,0.727,1.298,0.949,0.424,0.738,0.696,��,8.6,��
